[[[{"header":{"parameterUnit":"kt","parameterCategory":2,"dx":1,"dy":1,"la1":30.253999710083008,"la2":30.299108505249023,"lo1":-89.0895004272461,"lo2":-89.04439544677734,"nx":28,"ny":28,"refTime":"2022-10-21T21:00:00:Z","depth":0,"parameterNumber":1,"parameterNumberName":"U-component_of_WINDS"},"data":[-5.3752,-5.3822,-5.3832,-5.3918,-5.3941,-5.4002,-5.4027,-5.406,-5.4089,-5.4163,-5.4208,-5.4225,-5.4258,-5.4314,-5.4364,-5.437,-5.439,-5.441,-5.4413,-5.4316,-5.4303,-5.4291,-5.4273,-5.4414,-5.4415,-5.4512,-5.4513,-5.4513,-5.3685,-5.3708,-5.3756,-5.3808,-5.385,-5.3837,-5.3878,-5.3914,-5.3968,-5.4004,-5.4048,-5.4114,-5.4168,-5.4193,-5.4247,-5.4281,-5.4277,-5.4295,-5.4291,-5.4296,-5.4194,-5.4175,-5.4298,-5.4297,-5.4297,-5.4297,-5.4297,-5.4297,-5.3566,-5.3608,-5.3644,-5.3695,-5.3724,-5.3759,-5.3801,-5.382,-5.3867,-5.3921,-5.3923,-5.3985,-5.4022,-5.4089,-5.4114,-5.4163,-5.4144,-5.4166,-5.4171,-5.4175,-5.418,-5.4038,-5.4172,-5.4172,-5.4172,-5.4172,-5.4171,0,-5.348,-5.3485,-5.353,-5.3578,-5.3616,-5.3654,-5.3691,-5.3717,-5.3728,-5.3766,-5.3822,-5.3856,-5.3923,-5.3977,-5.4027,-5.4048,-5.4036,-5.4036,-5.4051,-5.4049,-5.4043,-5.4046,-5.3877,-5.4031,-5.4029,-5.4029,-5.4028,-5.4028,-5.3359,-5.3407,-5.3447,-5.3478,-5.3499,-5.3549,-5.358,-5.3585,-5.3618,-5.3664,-5.3701,-5.3754,-5.3797,-5.3886,-5.3905,-5.3955,-5.3949,-5.4007,-5.3956,-5.3955,-5.3949,-5.3945,-5.395,-5.4015,-5.4017,-5.4018,-5.4019,0,-5.329,-5.3302,-5.3377,-5.3412,-5.3422,-5.3472,-5.3502,-5.3544,-5.3556,-5.3615,-5.363,-5.3648,-5.3703,-5.3713,-5.3777,-5.378,-5.3865,-5.3859,-5.3853,-5.3851,-5.3903,-5.3898,-5.4072,-5.4095,-5.395,-5.3952,-5.3953,0,-5.319,-5.3252,-5.3265,-5.3308,-5.3378,-5.338,-5.3449,-5.3465,-5.3495,-5.3541,-5.3529,-5.3574,-5.3578,-5.3625,-5.363,-5.3701,-5.3713,-5.3719,-5.3719,-5.3719,-5.3718,-5.3733,-5.3726,-5.3719,-5.3718,-5.3717,-5.3716,0,-5.3079,-5.3158,-5.3228,-5.3247,-5.3288,-5.3322,-5.334,-5.3372,-5.3402,-5.3442,-5.3462,-5.3509,-5.3535,-5.3572,-5.3577,-5.3542,-5.3665,-5.3617,-5.367,-5.367,-5.3693,-5.3691,-5.3846,-5.3715,-5.3715,-5.3714,-5.3714,0,-5.2997,-5.3037,-5.3137,-5.3171,-5.3191,-5.3237,-5.3283,-5.3324,-5.3359,-5.3364,-5.3396,-5.3386,-5.3449,-5.3402,-5.3488,-5.3441,-5.3468,-5.3479,-5.3483,-5.3486,-5.3432,-5.3516,-5.3664,-5.3679,-5.3495,-5.3493,-5.3491,0,-5.2867,-5.297,-5.297,-5.3065,-5.3113,-5.3094,-5.3146,-5.3176,-5.3187,-5.323,-5.3242,-5.3291,-5.3257,-5.3273,-5.3315,-5.3329,-5.339,-5.3321,-5.3383,-5.3386,-5.3373,-5.351,-5.3528,-5.3631,-5.3468,-5.347,-5.3472,0,-5.2766,-5.2812,-5.2828,-5.285,-5.2887,-5.2927,-5.2987,-5.3034,-5.3063,-5.3097,-5.3146,-5.3215,-5.3193,-5.3219,-5.3215,-5.3258,-5.3349,-5.3227,-5.3228,-5.3248,-5.3457,-5.3474,-5.3491,-5.3338,-5.334,-5.3343,-5.3454,0,-5.2639,-5.2691,-5.2736,-5.2782,-5.2813,-5.2872,-5.2878,-5.2911,-5.2904,-5.2912,-5.2985,-5.3009,-5.3057,-5.3078,-5.3071,-5.3166,-5.3151,-5.3125,-5.3076,-5.3167,-5.3204,-5.3219,-5.3022,-5.3021,-5.302,-5.3019,0,0,-5.2511,-5.2583,-5.2578,-5.2634,-5.266,-5.2636,-5.2699,-5.2721,-5.2767,-5.2785,-5.2759,-5.2858,-5.2878,-5.2966,-5.2995,-5.3014,-5.3031,-5.2998,-5.3124,-5.3136,-5.3147,-5.3186,-5.3202,-5.3017,-5.3016,-5.3016,-5.3015,0,-5.2464,-5.2484,-5.2545,-5.2568,-5.2601,-5.2606,-5.2621,-5.2649,-5.2657,-5.2727,-5.2705,-5.2749,-5.2827,-5.2851,-5.2873,-5.2989,-5.2968,-5.3004,-5.3064,-5.3112,-5.3126,-5.3138,-5.3179,-5.3193,-5.3012,-5.3013,-5.3013,0,-5.2364,-5.2384,-5.2413,-5.2469,-5.249,-5.2539,-5.2491,-5.2544,-5.258,-5.2548,-5.2618,-5.2631,-5.2663,-5.2745,-5.2782,-5.2758,-5.2911,-5.2863,-5.287,-5.2873,-5.2921,-5.2937,-5.2951,-5.2763,-5.2762,-5.2761,0,0,-5.2322,-5.2369,-5.2389,-5.2459,-5.2474,-5.2481,-5.2507,-5.2501,-5.2529,-5.254,-5.2556,-5.2585,-5.263,-5.2659,-5.2701,-5.2791,-5.2797,-5.2832,-5.2844,-5.2853,-5.2862,-5.2912,-5.2927,-5.2758,-5.2758,-5.2757,0,0,-5.2302,-5.2328,-5.2314,-5.2396,-5.2424,-5.2448,-5.2491,-5.2475,-5.2512,-5.2506,-5.2497,-5.2504,-5.2581,-5.2594,-5.2549,-5.2684,-5.2636,-5.2647,-5.2671,-5.2686,-5.2698,-5.2692,-5.25,0,0,0,0,0,-5.2254,-5.2325,-5.2313,-5.2327,-5.2395,-5.2456,-5.2464,-5.2458,-5.2425,-5.246,-5.2471,-5.2446,-5.2568,-5.2528,-5.2542,-5.2592,-5.2714,-5.2722,-5.2729,-5.2782,-5.2797,-5.2811,0,0,0,0,0,0,-5.226,-5.2277,-5.2311,-5.2337,-5.2353,-5.2453,-5.2395,-5.2396,-5.2421,-5.2416,-5.2445,-5.2447,-5.2443,-5.252,-5.2533,-5.258,-5.2495,-5.2717,-5.2724,-5.273,-5.2787,-5.28,-5.2811,0,0,0,0,0,-5.2264,-5.2278,-5.2389,-5.2336,-5.235,-5.236,-5.2392,-5.2392,-5.2412,-5.2427,-5.2428,-5.2405,-5.2445,-5.2455,-5.2528,-5.2574,-5.2486,-5.2491,-5.2721,-5.2727,-5.2731,-5.2793,0,0,0,0,0,0,-5.2267,-5.2278,-5.2392,-5.2396,-5.2308,-5.2354,-5.2361,-5.2389,-5.2421,-5.2423,-5.2386,-5.2382,-5.2447,-5.2455,-5.2463,-5.2573,-5.2479,-5.2484,-5.2487,-5.2725,-5.2729,-5.2733,0,0,0,0,0,0,-5.2271,-5.2282,-5.2394,-5.2359,-5.2358,-5.2349,-5.2355,-5.2415,-5.2422,-5.2379,-5.2376,-5.2384,-5.2434,-5.2454,-5.2461,-5.2555,-5.2473,-5.2478,-5.2481,-5.2483,-5.2729,-5.2732,0,0,0,0,0,0,-5.2275,-5.2285,-5.2357,-5.2357,-5.2357,-5.24,-5.2402,-5.2473,-5.2392,-5.2378,-5.2384,-5.2381,-5.2435,-5.2441,-5.2459,-5.2551,-5.2554,-5.2473,-5.2477,-5.2479,-5.248,0,0,0,0,0,0,0,-5.2279,-5.2217,-5.2369,-5.2356,-5.2356,-5.2432,-5.2433,-5.2434,-5.2391,-5.2388,-5.2385,-5.2383,-5.2446,-5.2452,-5.2457,-5.2548,0,0,-5.2473,-5.2475,0,0,0,0,0,0,0,0,-5.2213,-5.2216,-5.2369,-5.237,-5.2371,-5.2432,-5.2433,-5.2434,-5.2391,-5.2388,-5.2386,-5.2384,-5.2448,-5.2452,-5.2456,0,0,0,0,0,0,0,0,0,0,0,0,0,0,0,-5.2369,-5.237,0,-5.2432,-5.2433,-5.2434,-5.239,-5.2388,-5.2386,-5.2385,-5.2449,-5.2452,-5.2456,0,0,0,0,0,0,0,0,0,0,0,0,0,0,0,0,0,0,0,0,0,0,0,0,0,0,0,0,0,0,0,0,0,0,0,0,0,0,0,0,0,0,0,0,0,0,0,0,0,0,0,0,0,0,0,0,0,0,0,0,0,0,0,0,0,0,0,0,0]}],[{"header":{"parameterUnit":"kt","parameterCategory":2,"dx":1,"dy":1,"la1":30.253999710083008,"la2":30.299108505249023,"lo1":-89.0895004272461,"lo2":-89.04439544677734,"nx":28,"ny":28,"refTime":"2022-10-21T21:00:00:Z","depth":0,"parameterNumber":2,"parameterNumberName":"V-component_of_WINDS"},"data":[5.4027,5.3961,5.3966,5.3891,5.3883,5.3832,5.3815,5.3793,5.3776,5.3713,5.3677,5.3672,5.3654,5.361,5.3569,5.3567,5.3549,5.3524,5.3525,5.364,5.3656,5.3672,5.3689,5.352,5.352,5.3405,5.3404,5.3403,5.4115,5.4107,5.4069,5.4035,5.4002,5.4031,5.4005,5.3975,5.3927,5.3905,5.387,5.3813,5.3768,5.3758,5.3714,5.368,5.3689,5.3667,5.3669,5.3665,5.3789,5.3807,5.3661,5.3661,5.3661,5.3661,5.3661,5.3661,5.4275,5.4234,5.4218,5.4176,5.416,5.4136,5.4097,5.4094,5.4055,5.4012,5.4023,5.3967,5.3943,5.389,5.3872,5.3827,5.385,5.3827,5.382,5.3814,5.3807,5.3973,5.382,5.382,5.382,5.3821,5.3821,0,5.4393,5.4401,5.4364,5.4329,5.4299,5.4271,5.4245,5.4221,5.4234,5.42,5.4151,5.4122,5.4065,5.4017,5.3976,5.3961,5.3983,5.3985,5.3968,5.3962,5.3963,5.3961,5.4163,5.3988,5.399,5.3991,5.3992,5.3992,5.4555,5.4506,5.449,5.4464,5.4451,5.4407,5.4381,5.4396,5.4368,5.4336,5.4298,5.4251,5.4214,5.4131,5.4122,5.4077,5.4087,5.402,5.408,5.4077,5.4085,5.4087,5.4082,5.4007,5.4006,5.4004,5.4003,0,5.4645,5.4653,5.4579,5.4566,5.4561,5.4509,5.4497,5.4455,5.4455,5.4396,5.4383,5.4381,5.4331,5.4333,5.4274,5.4276,5.4186,5.4197,5.4196,5.4198,5.4138,5.4143,5.3944,5.3918,5.4095,5.4093,5.4092,0,5.4785,5.472,5.4735,5.4691,5.462,5.4637,5.4564,5.4557,5.4538,5.4492,5.4519,5.4475,5.4485,5.444,5.4443,5.437,5.4359,5.4355,5.4357,5.4352,5.4352,5.4333,5.4341,5.4362,5.4363,5.4364,5.4365,0,5.4924,5.4856,5.4786,5.4771,5.4749,5.4714,5.4703,5.4681,5.4654,5.4619,5.4602,5.4559,5.4535,5.45,5.4505,5.4545,5.4415,5.4471,5.4411,5.4411,5.438,5.4382,5.4208,5.4366,5.4366,5.4367,5.4367,0,5.5037,5.5006,5.4902,5.4885,5.4866,5.4818,5.478,5.474,5.4714,5.4714,5.4686,5.4703,5.464,5.4695,5.4608,5.4659,5.4633,5.4625,5.462,5.4613,5.4674,5.4574,5.441,5.4392,5.4609,5.4611,5.4613,0,5.5195,5.5093,5.5107,5.5007,5.496,5.4996,5.4943,5.4919,5.4915,5.4873,5.4867,5.4816,5.4859,5.4843,5.4799,5.479,5.4723,5.4799,5.4732,5.473,5.4738,5.4587,5.4562,5.4446,5.4639,5.4636,5.4634,0,5.5317,5.5293,5.5274,5.5258,5.5231,5.519,5.513,5.5085,5.5057,5.5026,5.4974,5.4903,5.4932,5.4905,5.4913,5.4867,5.4768,5.4903,5.4902,5.4878,5.4652,5.4628,5.4609,5.4784,5.478,5.4778,5.4654,0,5.5486,5.5435,5.5385,5.5347,5.5317,5.5254,5.5259,5.5226,5.524,5.5236,5.5159,5.5136,5.5086,5.5065,5.5075,5.4971,5.4988,5.5018,5.507,5.4971,5.493,5.4914,5.5131,5.5132,5.5134,5.5135,0,0,5.5634,5.5561,5.5578,5.552,5.5496,5.5533,5.5465,5.5444,5.54,5.5381,5.5412,5.5307,5.5286,5.5191,5.5161,5.514,5.5121,5.5154,5.5018,5.5005,5.4993,5.495,5.4932,5.5137,5.5137,5.5138,5.5138,0,5.5696,5.5681,5.5616,5.5596,5.5568,5.5568,5.5553,5.5529,5.5523,5.5448,5.5475,5.5429,5.5343,5.5318,5.5294,5.5168,5.5188,5.5152,5.5084,5.5031,5.5017,5.5004,5.4958,5.4941,5.5141,5.5141,5.5141,0,5.5817,5.5803,5.5772,5.5719,5.57,5.5649,5.5707,5.565,5.5612,5.5649,5.5573,5.556,5.5525,5.5435,5.5394,5.5419,5.5249,5.5303,5.5294,5.5289,5.5238,5.522,5.5205,5.5411,5.5412,5.5413,0,0,5.587,5.5823,5.581,5.5732,5.5719,5.5717,5.569,5.57,5.5671,5.5659,5.5642,5.5611,5.5562,5.5528,5.5482,5.5382,5.5375,5.5336,5.5323,5.5313,5.5302,5.5248,5.5231,5.5417,5.5417,5.5417,0,0,5.5894,5.5878,5.5897,5.5807,5.5781,5.576,5.5711,5.5732,5.5691,5.5698,5.5708,5.57,5.5615,5.56,5.5648,5.5499,5.5551,5.554,5.5512,5.5496,5.5484,5.5488,5.57,0,0,0,0,0,5.5961,5.5881,5.5898,5.5884,5.5814,5.5751,5.5742,5.5751,5.5788,5.5749,5.5739,5.5764,5.5628,5.5671,5.5655,5.56,5.5463,5.5455,5.5447,5.5388,5.5372,5.5357,0,0,0,0,0,0,5.5955,5.5938,5.59,5.5876,5.5861,5.5754,5.582,5.582,5.5793,5.5799,5.5765,5.5762,5.5766,5.568,5.5665,5.5613,5.5705,5.546,5.5453,5.5447,5.5383,5.5369,5.5357,0,0,0,0,0,5.5951,5.5937,5.5823,5.5877,5.5864,5.5856,5.5823,5.5823,5.5802,5.5785,5.5784,5.5811,5.5764,5.5752,5.5671,5.5619,5.5715,5.571,5.5455,5.545,5.5445,5.5376,0,0,0,0,0,0,5.5948,5.5935,5.5821,5.5817,5.5908,5.5862,5.5856,5.5826,5.579,5.5788,5.5832,5.5837,5.5762,5.5753,5.5744,5.5621,5.5724,5.5718,5.5715,5.5451,5.5447,5.5443,0,0,0,0,0,0,5.5943,5.5932,5.5819,5.5858,5.5858,5.5868,5.5862,5.5793,5.5789,5.5839,5.5842,5.5835,5.5775,5.5753,5.5746,5.5638,5.573,5.5725,5.5721,5.5719,5.5448,5.5444,0,0,0,0,0,0,5.5939,5.5929,5.5859,5.5859,5.586,5.5816,5.5807,5.5734,5.5827,5.584,5.5835,5.5839,5.5774,5.5767,5.5748,5.5643,5.564,5.573,5.5726,5.5724,5.5722,0,0,0,0,0,0,0,5.5935,5.5998,5.5845,5.586,5.5861,5.578,5.5779,5.5778,5.5827,5.5831,5.5834,5.5837,5.5761,5.5755,5.5749,5.5646,0,0,5.5731,5.5728,0,0,0,0,0,0,0,0,5.6002,5.5999,5.5844,5.5844,5.5843,5.578,5.5779,5.5778,5.5828,5.5831,5.5833,5.5836,5.576,5.5755,5.575,0,0,0,0,0,0,0,0,0,0,0,0,0,0,0,5.5844,5.5844,0,5.578,5.5779,5.5779,5.5828,5.5831,5.5833,5.5835,5.5758,5.5754,5.575,0,0,0,0,0,0,0,0,0,0,0,0,0,0,0,0,0,0,0,0,0,0,0,0,0,0,0,0,0,0,0,0,0,0,0,0,0,0,0,0,0,0,0,0,0,0,0,0,0,0,0,0,0,0,0,0,0,0,0,0,0,0,0,0,0,0,0,0,0]}]]]